Kalispell, MT

4:23 PM MST on January 16, 2017 (GMT -0700)
Glacier Park International

Weather History for KGPI - May, 2013

Change the Weather History Date:

Wednesday, May 29, 2013

  Actual Average Record
Temperature  
Mean Temperature 58 °F 55 °F  
Max Temperature 70 °F 68 °F 94 °F (1986)
Min Temperature 45 °F 42 °F 28 °F (1951)
Degree Days  
Heating Degree Days 7 10  
Month to date heating degree days 336 393  
Since 1 July heating degree days 7241 7804  
Cooling Degree Days 0 0  
Month to date cooling degree days 0 0  
Year to date cooling degree days 0 0  
Growing Degree Days 7 (Base 50)    
Moisture  
Dew Point 45 °F    
Average Humidity 64    
Maximum Humidity 100    
Minimum Humidity 27    
Precipitation  
Precipitation 0.15 in 0.09 in 0.53 in (1938)
Month to date precipitation 2.61 1.81  
Year to date precipitation 5.96 6.44  
Snow  
Snow 0.00 in - - ()
Month to date snowfall T  
Year to date snowfall 9.2  
Since 1 July snowfall 18.0  
Snow Depth 0.00 in    
Sea Level Pressure  
Sea Level Pressure 29.72 in    
Wind  
Wind Speed 3 mph (South)    
Max Wind Speed 20 mph    
Max Gust Speed 25 mph    
Visibility 8 miles    
Events Rain    
T = Trace of Precipitation, MM = Missing Value Source: NWS Daily Summary

Daily Weather History Graph

Daily Weather History Graph

Search for Another Location

Airport or City:

Trip Planner

Search our weather history database for the weather conditions in past years. The results will help you decide how hot, cold, wet, or windy it might be!

Date:

Astronomy

May. 29, 2013 Rise Set
Actual Time 5:42 AM MDT 9:27 PM MDT
Civil Twilight 5:02 AM MDT 10:07 PM MDT
Nautical Twilight 4:08 AM MDT 11:01 PM MDT
Astronomical Twilight 2:50 AM MDT 12:21 AM MDT
Moon 12:40 AM MDT (5/29) 11:00 AM MDT (5/29)
Length of Visible Light 17h 04m
Length of Day
15h 44m
Waning Gibbous, 72% of the Moon is Illuminated
May 29
Waning Gibbous
May 31
Last Quarter
Jun 8
New
Jun 16
First Quarter
Jun 23
Full

Hourly Weather History & Observations

Time (MDT) Temp. Windchill Dew Point Humidity Pressure Visibility Wind Dir Wind Speed Gust Speed Precip Events Conditions
12:55 AM 48.9 °F - 46.9 °F 93% 29.79 in 10.0 mi Calm Calm - N/A   Overcast
1:55 AM 46.0 °F 44.8 °F 46.0 °F 100% 29.79 in 10.0 mi West 3.5 mph - N/A   Clear
2:55 AM 46.9 °F - 46.0 °F 97% 29.78 in 10.0 mi Calm Calm - N/A   Overcast
3:51 AM 48.2 °F - 46.4 °F 93% 29.77 in 10.0 mi Calm Calm - N/A   Overcast
3:55 AM 48.0 °F - 46.9 °F 96% 29.76 in 10.0 mi Calm Calm - N/A   Overcast
4:03 AM 48.2 °F - 46.4 °F 93% 29.77 in 10.0 mi Calm Calm - N/A   Overcast
4:55 AM 48.0 °F - 46.9 °F 96% 29.75 in 10.0 mi Calm Calm - N/A   Overcast
5:55 AM 48.9 °F - 46.9 °F 93% 29.73 in 10.0 mi Calm Calm - N/A   Overcast
6:13 AM 48.2 °F - 48.2 °F 100% 29.74 in 1.8 mi Calm Calm - N/A   Overcast
6:17 AM 48.2 °F - 48.2 °F 100% 29.74 in 0.8 mi Calm Calm - N/A   Overcast
6:30 AM 48.2 °F - 48.2 °F 100% 29.74 in 1.5 mi Calm Calm - N/A   Overcast
6:42 AM 48.2 °F - 48.2 °F 100% 29.74 in 1.0 mi Calm Calm - N/A   Overcast
6:55 AM 48.0 °F - 46.9 °F 96% 29.74 in 0.8 mi Calm Calm - N/A   Overcast
6:59 AM 48.2 °F - 46.4 °F 93% 29.74 in 1.5 mi Calm Calm - N/A   Overcast
7:03 AM 48.2 °F - 46.4 °F 93% 29.74 in 3.0 mi Calm Calm - N/A   Overcast
7:16 AM 48.2 °F - 46.4 °F 93% 29.74 in 1.0 mi Calm Calm - N/A   Overcast
7:55 AM 50.0 °F - 48.0 °F 93% 29.75 in 2.0 mi Calm Calm - N/A   Overcast
8:29 AM 50.0 °F - 48.2 °F 94% 29.75 in 6.0 mi Calm Calm - N/A   Overcast
8:55 AM 52.0 °F - 46.9 °F 83% 29.75 in 10.0 mi Calm Calm - N/A   Overcast
9:02 AM 51.8 °F - 48.2 °F 88% 29.74 in 10.0 mi Calm Calm - N/A   Overcast
9:35 AM 53.6 °F - 46.4 °F 77% 29.74 in 10.0 mi Calm Calm - N/A   Overcast
9:55 AM 55.0 °F - 48.9 °F 80% 29.73 in 10.0 mi Calm Calm - N/A   Overcast
10:38 AM 55.4 °F - 48.2 °F 77% 29.73 in 10.0 mi Calm Calm - N/A   Overcast
10:55 AM 55.9 °F - 48.0 °F 75% 29.72 in 10.0 mi SSE 4.6 mph - N/A   Overcast
11:55 AM 57.9 °F - 45.0 °F 62% 29.70 in 10.0 mi SE 3.5 mph - N/A   Partly Cloudy
12:55 PM 63.0 °F - 44.1 °F 50% 29.69 in 10.0 mi South 4.6 mph - N/A   Mostly Cloudy
1:55 PM 63.0 °F - 39.0 °F 41% 29.68 in 10.0 mi Variable 3.5 mph - N/A   Mostly Cloudy
2:55 PM 64.9 °F - 37.0 °F 36% 29.66 in 10.0 mi Variable 3.5 mph - N/A   Clear
3:55 PM 66.0 °F - 37.0 °F 34% 29.65 in 10.0 mi Variable 6.9 mph - N/A   Clear
4:55 PM 66.9 °F - 36.0 °F 32% 29.63 in 10.0 mi SSE 4.6 mph - N/A   Clear
5:55 PM 68.0 °F - 36.0 °F 31% 29.61 in 10.0 mi Calm Calm - N/A   Clear
6:55 PM 68.0 °F - 34.0 °F 28% 29.61 in 10.0 mi Variable 3.5 mph - N/A   Clear
7:55 PM 64.9 °F - 37.0 °F 36% 29.62 in 10.0 mi Calm Calm - N/A   Clear
8:55 PM 61.0 °F - 44.1 °F 54% 29.64 in 10.0 mi SSE 6.9 mph - N/A   Clear
9:32 PM 59.0 °F - 42.8 °F 55% 29.68 in 10.0 mi SW 13.8 mph 25.3 mph N/A   Overcast
9:55 PM 57.9 °F - 42.1 °F 56% 29.68 in 10.0 mi WSW 13.8 mph 20.7 mph N/A   Overcast
10:55 PM 55.0 °F - 43.0 °F 64% 29.75 in 10.0 mi South 12.7 mph - N/A   Overcast
11:55 PM 50.0 °F - 45.0 °F 83% 29.80 in 10.0 mi South 6.9 mph - 0.09 in Rain Light Rain